Location: Seattle
(47.6064°N, 122.3308°W)
Time: 01:45:09
(UTC-08:00)

A-11 Canister half - Pass Details

Date: 30 November 2020
Orbit: 1524 x 1684 km, 47.3° (Epoch: 21 January)

Event Time Altitude Azimuth Distance (km) Brightness Sun altitude
Rises 04:16:11 0° 202° (SSW) 4,920 - -32.9°
Exits shadow 04:18:15 - 198° (SSW) 4,345 11.2 -32.6°
Reaches altitude 10° 04:19:47 10° 193° (SSW) 3,939 11.0 -32.3°
Maximum altitude 04:28:20 33° 135° (SE) 2,572 10.4 -30.9°
Drops below altitude 10° 04:36:49 10° 77° (ENE) 3,913 12.0 -29.4°
Sets 04:40:21 0° 69° (ENE) 4,884 12.6 -28.8°
